Simultaneous Nadir Overpasses (SNOs) Predictions

Prediction of SNOs between NOAA-19 and TERRA Satellite Orbit:

Table of predicted SNOs for the next 14.0 days since TLE Epoch: 9/24/2022
Index Date (NOAA-19) Time (NOAA-19) Lat,Lon (NOAA-19) SZA (NOAA-19 ) Date (TERRA) Time (TERRA) Lat,Lon (TERRA) SZA (TERRA ) Distance(km) Time Diff (sec)
1 09/25/2022 19:18:46 80.87, -74.07 83.82 09/25/2022 19:18:58 80.86, -73.96 83.83 2.33 12
2 09/28/2022 00:51:36 -80.87, 22.84 95.29 09/28/2022 00:52:36 -80.87, 22.73 95.27 1.93 60
3 09/28/2022 01:42:36 80.87,-169.64 84.76 09/28/2022 01:42:02 80.87,-169.62 84.74 0.46 34
4 09/30/2022 07:15:26 -80.87, -72.97 94.38 09/30/2022 07:15:40 -80.87, -72.98 94.37 0.72 14
5 10/02/2022 12:48:19 80.87, 23.57 86.49 10/02/2022 12:49:17 80.88, 23.62 86.52 0.98 58
6 10/02/2022 13:39:16 -80.87,-168.83 93.48 10/02/2022 13:38:44 -80.88,-168.76 93.48 1.49 32
7 10/04/2022 19:12:09 80.87, -72.14 87.40 10/04/2022 19:12:21 80.87, -72.24 87.39 1.73 12
8 10/07/2022 00:44:58 -80.88, 24.20 91.78 10/07/2022 00:45:59 -80.86, 24.26 91.76 1.72 61



Historial Predications of SNOs between NOAA-19 and TERRA
